Location: Azul
(36.7830°S, 59.8500°W)
Time: 00:24:12
(UTC-03:00)

DELFI C3 - Pass Details

Date: 28 October 2021
Orbit: 529 x 543 km, 97.4° (Epoch: 30 November)

Event Time Altitude Azimuth Distance (km) Brightness Sun altitude
Rises 20:51:08 0° 168° (SSE) 2,734 ? -15.9°
Reaches altitude 10° 20:53:17 10° 167° (SSE) 1,830 ? -16.2°
Maximum altitude 20:57:15 83° 79° (E) 554 ? -16.9°
Drops below altitude 10° 21:01:08 10° 350° (N) 1,793 ? -17.6°
Enters shadow 21:01:10 10° 350° (N) 1,804 ? -17.6°
